Retour au catalogue

COSMOS 2131

ActifMilitaireLEO
NORAD 21106·PAYLOAD·🇷🇺 Russia

Lancé Feb 12, 1991 depuis Plesetsk Cosmodrome

Loading…

Prochains Passages (prochaines 24 heures)

TLE

FraisSource: Space-Track

Époque: Sep 14, 2026, 11:32 UTC

1 21106U 91009G   26257.48084590 -.00000026  00000-0 -56330-4 0  9990
2 21106  74.0268 270.1106 0051573  29.9087  42.0574 12.58965606635501

Suivez COSMOS 2131 en temps réel avec AllMySat

Download on the App Store